Temperature
14 14 14 14 14 14 14 14 14 13 13 13 13 13 13 14 14 14 14 15 15 15 15 15 15 15 15 15 15 15 15 15 15 15 15 15 15 15
13 13 13 14 13 13 13 14 14 14 13 13 13 13 13 13 13 14 14 14 15 15 15 14 14 14 14 14 14 14 14 14 14 14 15 15 15 15
13 13 13 13 13 13 13 13 13 14 14 12 12 12 13 13 13 13 14 14 14 14 14 13 13 13 13 13 13 13 14 14 14 14 14 14 14 14
13 13 13 13 13 13 13 13 13 13 14 13 12 13 13 13 13 13 13 13 13 13 12 12 12 12 12 13 13 13 13 13 13 13 14 14 14 14
12 12 12 12 12 12 12 12 13 12 13 13 13 13 12 12 12 13 13 12 12 12 12 12 12 12 12 12 12 12 13 13 13 13 13 13 13 13
12 12 12 12 12 12 12 12 12 12 13 13 13 12 12 12 12 12 12 12 12 12 12 12 12 12 12 12 12 12 12 12 12 12 12 13 13 13
11 11 11 12 12 12 12 12 12 13 13 13 12 12 12 12 12 12 12 11 11 11 11 11 11 11 11 11 11 11 11 12 12 12 12 12 12 13
11 11 11 11 12 12 12 12 12 13 13 12 12 12 11 11 11 11 11 11 11 11 11 11 11 11 11 10 10 11 11 11 11 11 12 12 12 12
11 11 11 11 12 12 12 12 12 12 12 12 12 11 11 11 11 11 11 10 10 10 11 11 10 10 10 10 10 10 10 10 10 11 11 11 11 11
11 11 11 11 11 11 11 11 11 11 11 11 11 11 11 10 10 10 10 10 10 10 10 10 10 9 9 9 9 9 9 10 10 10 10 10 10 11
11 11 11 11 11 11 11 11 11 11 11 11 11 10 10 10 10 10 10 10 9 9 9 9 9 9 9 8 8 8 9 9 9 9 9 9 10 10
11 11 11 11 11 11 11 11 11 11 11 10 10 10 10 10 9 9 9 9 9 8 8 8 8 8 8 8 8 8 8 8 9 9 9 9 9 9
11 11 10 10 10 10 11 11 11 10 10 10 10 9 9 9 8 8 8 8 8 8 8 8 8 8 8 8 7 7 7 8 8 8 8 8 8 8
11 11 10 10 10 10 10 10 10 9 9 9 9 8 8 8 8 8 8 8 8 7 7 7 7 7 7 7 7 7 7 7 7 7 7 7 7 7
11 10 10 9 9 9 9 9 9 8 8 8 8 8 8 7 7 7 7 7 7 7 7 7 7 7 7 7 7 6 6 6 6 6 6 6 6 6
10 10 9 9 9 9 8 8 8 8 8 8 7 7 7 7 7 7 7 7 7 6 6 6 6 6 6 6 6 6 6 6 6 6 6 5 5 5
10 10 9 9 9 8 8 8 7 7 7 7 7 7 7 7 7 7 6 6 6 6 6 6 6 6 6 6 6 6 6 5 5 5 5 5 5 5
10 10 9 9 9 8 8 8 7 7 7 7 7 7 7 6 6 6 6 6 6 6 6 6 6 6 6 6 6 6 5 5 5 5 5 4 4 4
10 10 9 9 9 9 8 8 8 7 7 7 7 7 6 6 6 6 6 6 6 6 6 6 6 6 6 6 5 5 5 5 5 4 4 4 3 3
10 10 9 9 9 9 9 8 8 8 7 7 7 7 7 7 6 6 6 6 6 6 6 5 5 5 5 5 5 5 5 5 4 4 4 3 3 3
10 10 9 9 9 9 9 9 8 8 8 8 7 7 7 7 7 6 6 6 6 6 5 5 5 5 5 5 5 5 4 4 4 4 3 3 2 2
10 10 9 9 9 9 9 9 9 8 8 8 8 7 7 7 7 7 6 6 6 6 6 5 5 5 5 5 5 4 4 4 4 3 3 3 2 2
10 10 10 9 9 9 9 9 9 9 8 8 8 8 8 7 7 7 7 6 6 6 6 5 5 5 5 5 4 4 4 4 3 3 3 2 2 2
Wind_Speed
8 9 8 7 7 7 5 5 6 4 2 1 2 4 5 7 9 9 9 12 12 9 9 9 9 10 10 10 10 10 9 8 7 6 5 4 5 6
5 7 7 5 6 5 5 4 4 4 4 2 2 3 4 7 10 10 10 13 14 12 12 12 12 12 12 12 12 11 10 9 8 7 6 6 6 7
2 5 6 6 5 5 4 4 3 4 7 3 2 2 5 8 7 9 11 11 13 16 15 15 15 14 14 14 14 14 13 12 11 10 9 8 8 9
1 3 5 6 7 5 5 5 5 5 8 7 3 4 6 5 6 8 7 10 11 15 16 15 15 15 15 15 14 14 14 13 13 11 11 10 10 11
6 5 6 7 7 5 6 7 7 7 7 9 5 4 5 5 6 6 7 6 7 9 11 12 12 13 13 13 14 14 14 14 13 11 10 10 10 11
8 7 6 6 7 7 7 9 10 10 9 10 7 5 5 4 5 5 5 5 6 6 7 8 9 10 11 12 13 14 14 15 14 14 13 13 12 13
9 7 6 7 8 7 8 9 11 10 10 10 8 6 4 4 4 2 3 3 4 5 4 5 5 6 8 10 12 14 14 14 15 15 16 16 16 16
8 7 8 10 14 14 13 11 10 11 10 8 7 7 5 4 3 3 3 3 3 5 4 4 4 6 6 9 13 15 16 15 15 16 16 16 17 18
5 6 7 8 10 11 13 14 12 10 10 8 9 6 4 3 3 4 3 4 3 4 3 4 4 4 5 9 14 16 17 18 18 18 19 19 19 18
5 6 7 6 6 10 10 10 9 7 6 6 8 5 3 3 2 3 3 3 2 3 4 3 4 3 3 5 12 17 18 19 19 20 21 22 22 20
5 5 6 6 8 13 12 12 11 10 11 13 12 10 9 7 3 4 4 4 3 3 5 3 3 3 2 3 7 14 16 18 19 20 21 23 24 19
5 5 6 8 9 11 12 13 12 8 8 10 10 10 9 10 10 5 3 4 3 2 4 3 3 3 2 2 4 8 11 14 17 18 21 23 24 16
6 5 5 10 12 12 11 10 12 10 9 10 9 8 8 8 8 7 6 5 4 3 3 2 3 3 2 3 4 5 7 8 10 12 16 21 22 17
8 6 6 12 14 14 11 12 13 11 8 8 8 7 6 6 6 7 8 9 7 5 4 3 3 3 3 3 4 5 5 8 9 9 11 15 17 18
8 10 12 14 13 11 12 12 10 8 8 8 7 4 3 3 3 4 6 6 7 9 9 6 4 3 3 3 3 4 5 6 9 9 10 11 12 12
10 12 13 12 10 10 8 7 5 6 6 6 5 4 3 4 4 4 4 4 6 6 7 10 7 4 4 3 4 5 5 6 7 7 8 10 11 12
12 7 6 5 6 5 5 5 5 5 5 4 5 5 5 5 4 3 3 4 4 4 5 5 5 5 5 5 5 6 5 5 6 6 6 9 11 12
13 10 8 8 8 7 7 5 4 4 5 5 6 5 5 5 4 3 3 4 4 3 3 4 4 3 2 4 5 6 5 5 5 6 6 8 11 12
10 10 9 9 8 8 7 6 5 5 4 5 6 5 5 4 4 4 3 3 3 3 3 3 4 3 4 4 3 5 5 5 6 8 8 7 9 10
10 12 11 10 9 9 8 6 6 6 5 5 5 5 4 4 3 3 3 3 2 2 3 3 4 3 2 3 3 3 5 5 5 8 9 7 8 8
11 11 10 10 9 9 9 9 8 8 6 6 5 5 4 3 3 3 3 4 2 1 2 3 4 4 2 2 2 2 3 5 4 4 6 8 11 11
12 11 10 10 10 9 10 10 9 8 8 6 6 5 5 4 4 4 4 4 3 2 1 1 3 2 2 1 2 3 4 5 5 5 4 5 7 10
12 11 10 10 9 9 10 11 11 9 8 8 7 6 6 5 4 4 5 5 4 3 2 0 1 2 2 2 2 3 4 5 5 5 6 8 9 9
Wind_Direction
237 227 219 213 204 201 195 186 175 162 147 113 64 33 58 71 67 68 62 58 57 66 81 83 81 72 62 55 49 45 43 42 41 36 21 357 326 301
229 215 209 198 190 187 184 176 168 147 132 103 80 55 71 84 74 72 65 58 55 70 83 85 82 71 60 52 45 39 33 28 23 15 2 349 331 315
235 208 196 174 162 148 130 121 125 127 123 105 71 67 82 85 74 69 64 62 62 67 80 83 80 73 65 59 53 46 39 31 23 11 355 339 324 311
64 129 136 133 120 113 109 106 106 111 126 122 83 68 73 78 78 67 57 58 61 65 74 78 79 76 71 65 58 51 45 37 28 18 5 349 333 317
59 76 89 101 98 98 108 113 111 106 105 114 100 73 74 61 71 63 54 46 49 53 62 66 70 73 68 60 51 46 40 34 27 18 8 355 339 324
52 56 65 86 103 110 116 120 117 110 107 107 101 85 74 57 69 68 65 45 41 34 41 48 56 65 61 51 42 34 27 21 14 7 360 350 338 324
59 56 68 97 112 119 127 124 122 117 112 109 104 94 79 71 71 67 77 61 54 31 31 40 45 54 48 40 33 25 19 12 5 359 353 346 337 326
81 70 78 89 96 95 97 102 116 124 122 114 110 106 98 89 85 80 81 67 42 9 18 33 39 51 43 41 33 31 25 17 8 0 352 343 334 326
104 97 92 88 92 95 84 77 76 93 116 124 121 122 124 136 126 110 100 88 66 354 360 29 26 44 36 39 36 35 29 23 16 9 1 350 339 328
90 107 112 102 104 109 99 86 75 69 89 101 114 116 120 146 151 130 129 107 73 36 19 30 9 13 5 28 28 29 26 20 15 11 8 1 351 337
73 86 114 113 124 120 111 104 93 83 79 85 88 86 81 77 111 115 106 101 68 22 16 18 358 339 331 1 12 16 16 13 10 8 6 4 358 354
85 73 87 112 124 126 122 120 115 113 110 94 75 62 63 59 58 72 108 111 98 45 10 3 2 358 1 348 351 7 11 6 3 4 5 5 4 10
123 106 90 104 105 105 109 118 129 125 110 102 93 82 71 65 61 61 66 89 94 64 355 346 12 20 18 346 342 351 3 4 3 6 8 7 8 14
140 130 114 107 104 102 102 113 114 109 106 103 98 90 83 77 70 70 72 74 75 67 16 24 48 29 30 26 357 339 348 7 8 9 12 13 15 13
142 137 125 112 103 99 106 112 110 110 111 111 108 99 87 75 84 81 66 68 66 54 41 36 55 63 59 43 9 352 345 355 5 13 19 22 21 16
132 126 113 104 102 102 97 92 95 109 119 119 113 104 94 87 75 79 73 61 58 37 32 37 39 56 62 46 38 25 10 1 0 7 21 28 25 22
140 128 125 126 123 119 112 106 107 113 111 116 119 114 102 91 81 81 86 81 70 39 14 11 24 58 63 46 39 27 17 18 8 2 14 23 23 16
144 151 154 157 158 157 151 141 134 129 126 131 129 123 115 107 100 95 97 97 86 54 25 5 1 32 58 72 47 16 14 6 355 358 7 10 12 10
152 165 169 172 173 172 170 164 159 150 144 142 140 138 131 125 122 124 124 116 99 63 30 15 16 23 18 11 27 40 6 350 351 359 360 359 -0 359
172 175 178 180 180 181 182 176 162 155 155 154 152 153 152 145 143 147 153 147 124 70 34 25 19 5 338 332 328 345 9 358 350 351 352 348 348 340
183 182 182 184 188 189 188 184 176 173 172 169 168 168 166 162 163 166 164 152 142 109 44 15 345 325 270 272 287 331 357 6 1 345 346 351 352 355
186 185 185 187 188 188 186 184 182 181 182 185 184 180 177 181 184 182 180 177 178 168 128 1 354 20 54 13 345 334 335 343 346 345 5 16 357 355
186 187 186 187 188 184 182 185 188 190 192 195 196 192 187 188 193 190 189 189 183 183 190 227 11 33 35 4 331 326 333 340 340 337 339 344 342 335
Height
1436 1437 1439 1440 1443 1445 1448 1451 1454 1456 1459 1460 1461 1462 1463 1465 1466 1467 1468 1469 1469 1469 1469 1469 1469 1470 1471 1471 1471 1472 1472 1473 1475 1477 1479 1481 1484 1486
1431 1432 1433 1435 1438 1441 1444 1446 1449 1452 1455 1458 1460 1462 1463 1465 1466 1467 1467 1466 1466 1466 1466 1467 1468 1469 1469 1470 1470 1470 1470 1470 1471 1472 1473 1475 1477 1479
1428 1428 1429 1431 1434 1437 1440 1443 1446 1449 1452 1456 1459 1462 1464 1465 1466 1466 1465 1464 1464 1464 1464 1465 1467 1468 1468 1469 1469 1469 1468 1468 1468 1468 1469 1470 1471 1473
1426 1426 1426 1429 1431 1435 1438 1442 1445 1449 1451 1454 1459 1462 1464 1465 1466 1466 1465 1465 1464 1465 1465 1466 1467 1467 1468 1468 1468 1467 1466 1466 1465 1465 1465 1465 1466 1466
1427 1426 1427 1429 1432 1435 1438 1442 1446 1449 1453 1456 1460 1462 1464 1465 1466 1467 1467 1467 1467 1467 1468 1468 1468 1468 1468 1467 1467 1466 1465 1463 1463 1462 1462 1461 1461 1460
1429 1430 1430 1432 1434 1437 1440 1444 1447 1451 1455 1458 1460 1463 1464 1466 1468 1469 1470 1470 1470 1470 1470 1469 1469 1469 1468 1467 1466 1465 1463 1462 1461 1459 1458 1457 1456 1455
1433 1434 1435 1436 1438 1440 1443 1447 1450 1453 1456 1458 1461 1463 1466 1468 1469 1470 1471 1472 1472 1472 1471 1471 1470 1469 1468 1467 1465 1464 1462 1460 1458 1456 1454 1452 1450 1449
1437 1438 1439 1441 1443 1445 1448 1451 1453 1455 1457 1459 1462 1464 1467 1468 1470 1471 1472 1472 1472 1473 1472 1471 1470 1469 1468 1466 1464 1462 1461 1458 1456 1453 1450 1448 1445 1443
1442 1443 1445 1446 1447 1449 1452 1454 1456 1458 1460 1461 1463 1465 1467 1469 1471 1471 1471 1472 1472 1472 1472 1471 1470 1468 1467 1466 1464 1462 1460 1457 1454 1451 1447 1444 1441 1438
1446 1447 1448 1450 1451 1453 1454 1456 1457 1459 1461 1463 1464 1467 1468 1470 1471 1471 1472 1471 1471 1472 1472 1471 1470 1469 1467 1466 1464 1462 1459 1456 1453 1449 1445 1441 1437 1433
1448 1449 1450 1451 1453 1454 1455 1456 1458 1460 1462 1464 1465 1467 1469 1470 1470 1471 1471 1471 1471 1472 1471 1471 1470 1468 1467 1466 1464 1462 1459 1456 1452 1448 1443 1438 1433 1429
1448 1450 1451 1452 1453 1454 1455 1456 1458 1460 1462 1464 1466 1468 1469 1469 1470 1470 1470 1471 1471 1471 1471 1470 1469 1468 1467 1465 1463 1461 1458 1455 1451 1447 1442 1436 1430 1425
1448 1450 1451 1452 1453 1454 1456 1457 1458 1460 1462 1464 1466 1468 1469 1469 1469 1469 1470 1470 1471 1471 1471 1470 1468 1467 1466 1465 1463 1460 1457 1454 1450 1446 1442 1437 1430 1424
1448 1450 1451 1453 1454 1455 1457 1458 1460 1461 1463 1465 1466 1467 1468 1469 1469 1469 1470 1470 1471 1471 1470 1469 1468 1467 1466 1464 1463 1461 1458 1454 1450 1446 1441 1436 1431 1426
1448 1450 1452 1454 1455 1456 1458 1459 1461 1462 1463 1465 1466 1467 1468 1469 1469 1470 1471 1471 1471 1471 1470 1469 1468 1467 1466 1465 1463 1461 1458 1455 1451 1447 1442 1436 1431 1425
1447 1450 1452 1455 1456 1457 1458 1460 1461 1462 1464 1465 1466 1467 1468 1469 1470 1470 1471 1472 1472 1472 1471 1469 1468 1468 1467 1465 1464 1461 1459 1456 1452 1448 1444 1439 1433 1427
1445 1448 1451 1454 1456 1458 1459 1460 1461 1462 1463 1465 1466 1467 1468 1469 1470 1471 1472 1473 1472 1472 1471 1470 1469 1468 1467 1466 1464 1462 1460 1457 1453 1450 1445 1440 1435 1429
1443 1446 1450 1453 1455 1457 1459 1460 1461 1462 1463 1465 1467 1468 1469 1470 1471 1472 1472 1473 1472 1472 1472 1471 1470 1469 1469 1467 1466 1463 1461 1458 1455 1451 1446 1441 1436 1431
1440 1444 1448 1451 1454 1457 1459 1460 1461 1462 1464 1465 1467 1469 1470 1471 1471 1472 1473 1473 1473 1472 1472 1471 1470 1470 1469 1468 1467 1464 1462 1459 1456 1452 1447 1442 1437 1432
1437 1441 1445 1449 1452 1455 1457 1459 1461 1462 1464 1465 1467 1469 1470 1471 1472 1472 1473 1473 1473 1472 1472 1471 1470 1470 1469 1468 1467 1465 1462 1459 1456 1452 1448 1443 1439 1433
1433 1438 1442 1446 1450 1453 1455 1458 1460 1462 1464 1465 1467 1469 1470 1471 1472 1472 1473 1473 1473 1472 1472 1471 1470 1469 1469 1468 1466 1465 1462 1460 1456 1453 1448 1444 1439 1433
1429 1434 1438 1443 1447 1450 1453 1456 1459 1461 1463 1465 1466 1468 1469 1470 1471 1472 1472 1472 1472 1472 1472 1471 1470 1469 1468 1468 1466 1464 1462 1460 1457 1453 1449 1445 1441 1435
1425 1430 1434 1439 1444 1447 1450 1453 1456 1459 1461 1463 1465 1467 1468 1469 1470 1471 1471 1472 1472 1471 1471 1470 1469 1469 1468 1466 1465 1463 1461 1459 1456 1453 1450 1447 1443 1440